Total_Precipitation_Accumulation
0.00 0.02 0.08 0.22 0.50 0.87 1.01 0.69 0.52 0.49 0.54 0.53 0.47 0.43 0.46 0.42 0.50 0.76 0.57 0.36 0.15 0.05 0.03 0.06 0.12 0.12 0.10 0.10 0.10 0.10 0.10 0.09 0.09 0.08 0.06 0.05 0.04 0.04 0.04 0.03 0.03 0.04 0.04 0.05 0.04 0.04 0.04 0.05 0.05
0.01 0.03 0.10 0.26 0.58 0.96 1.03 0.60 0.34 0.44 0.53 0.66 0.64 0.49 0.39 0.38 0.39 0.31 0.28 0.40 0.13 0.06 0.04 0.03 0.09 0.10 0.09 0.09 0.10 0.10 0.10 0.09 0.07 0.06 0.05 0.04 0.04 0.04 0.04 0.04 0.03 0.04 0.05 0.05 0.05 0.04 0.04 0.04 0.05
0.01 0.05 0.13 0.23 0.46 0.64 0.75 0.47 0.35 0.31 0.48 0.72 0.69 0.45 0.42 0.45 0.37 0.25 0.24 0.33 0.15 0.09 0.05 0.04 0.07 0.08 0.08 0.09 0.10 0.09 0.10 0.08 0.07 0.06 0.05 0.05 0.05 0.05 0.06 0.06 0.05 0.06 0.07 0.07 0.07 0.05 0.05 0.04 0.05
0.01 0.08 0.14 0.20 0.19 0.21 0.34 0.40 0.43 0.41 0.60 0.73 0.59 0.48 0.45 0.45 0.40 0.26 0.23 0.34 0.19 0.13 0.07 0.07 0.10 0.10 0.10 0.09 0.09 0.11 0.11 0.09 0.08 0.06 0.05 0.05 0.05 0.06 0.07 0.07 0.08 0.08 0.09 0.10 0.09 0.08 0.07 0.07 0.06
0.01 0.06 0.12 0.13 0.13 0.12 0.17 0.24 0.32 0.49 0.66 0.76 0.66 0.60 0.58 0.43 0.36 0.29 0.22 0.33 0.24 0.17 0.12 0.11 0.13 0.13 0.12 0.11 0.12 0.12 0.11 0.10 0.09 0.07 0.06 0.06 0.06 0.07 0.08 0.07 0.07 0.09 0.11 0.13 0.14 0.13 0.11 0.10 0.08
0.01 0.04 0.07 0.05 0.05 0.07 0.13 0.19 0.35 0.54 0.56 0.63 0.73 0.77 0.65 0.46 0.40 0.33 0.30 0.38 0.31 0.19 0.12 0.12 0.15 0.15 0.14 0.14 0.14 0.13 0.12 0.11 0.11 0.10 0.10 0.11 0.11 0.11 0.10 0.09 0.08 0.09 0.11 0.14 0.17 0.19 0.17 0.14 0.13
0.01 0.02 0.01 0.01 0.02 0.05 0.14 0.26 0.32 0.44 0.50 0.70 0.75 0.74 0.65 0.61 0.52 0.42 0.48 0.67 0.57 0.37 0.22 0.17 0.14 0.15 0.15 0.17 0.19 0.19 0.17 0.16 0.15 0.13 0.13 0.13 0.15 0.16 0.17 0.18 0.15 0.15 0.17 0.18 0.19 0.21 0.24 0.21 0.19
0.00 0.00 0.00 0.00 0.01 0.06 0.13 0.21 0.30 0.43 0.55 0.60 0.68 0.76 0.67 0.65 0.61 0.64 0.78 1.03 1.02 0.83 0.53 0.28 0.21 0.22 0.22 0.20 0.20 0.22 0.21 0.20 0.19 0.19 0.19 0.21 0.24 0.28 0.32 0.31 0.28 0.29 0.32 0.31 0.28 0.27 0.31 0.36 0.34
0.00 0.00 0.00 0.00 0.01 0.08 0.17 0.22 0.27 0.31 0.40 0.59 0.76 0.85 0.73 0.64 0.66 0.82 0.93 1.08 1.06 0.85 0.67 0.49 0.40 0.33 0.31 0.31 0.26 0.29 0.29 0.29 0.30 0.36 0.38 0.38 0.43 0.50 0.58 0.56 0.57 0.57 0.59 0.63 0.63 0.59 0.62 0.65 0.58
0.00 0.00 0.00 0.00 0.00 0.03 0.10 0.20 0.25 0.36 0.54 0.98 1.24 1.08 0.87 0.78 0.82 0.95 1.01 0.95 0.95 0.88 0.78 0.77 0.62 0.53 0.53 0.54 0.53 0.56 0.55 0.61 0.58 0.73 0.79 0.81 0.86 0.72 0.60 0.80 0.96 0.93 1.03 1.09 1.16 1.35 1.28 1.10 0.87
0.00 0.00 0.00 0.00 0.00 0.01 0.05 0.12 0.23 0.40 0.75 1.27 1.48 1.15 1.00 0.95 0.94 0.98 1.14 1.10 1.14 1.06 0.96 1.03 0.86 0.80 0.83 0.79 0.76 0.84 0.95 1.05 1.05 1.10 1.20 1.34 1.32 1.08 0.91 1.12 1.37 1.36 1.43 1.44 1.72 1.94 1.56 1.44 1.37
0.00 0.00 0.00 0.00 0.00 0.01 0.04 0.11 0.28 0.53 0.92 1.21 1.10 0.91 0.93 1.11 1.11 1.16 1.30 1.43 1.44 1.38 1.37 1.27 1.15 1.15 1.17 1.08 1.02 0.94 0.90 0.97 1.05 1.15 1.23 1.56 1.61 1.56 1.49 1.53 1.47 1.63 1.72 1.94 2.01 2.01 1.82 1.80 1.71
0.00 0.00 0.00 0.00 0.00 0.02 0.06 0.13 0.32 0.61 0.84 0.89 0.75 0.79 1.03 1.26 1.30 1.49 1.67 1.73 1.72 1.85 2.02 1.89 1.75 1.50 1.35 1.30 1.12 0.99 0.94 0.89 0.87 1.04 1.19 1.52 1.72 1.75 1.84 1.56 1.48 1.46 1.65 1.89 1.86 1.74 1.79 1.90 1.92
0.00 0.00 0.01 0.01 0.02 0.04 0.07 0.14 0.30 0.49 0.62 0.64 0.69 0.89 1.06 1.31 1.42 1.64 1.92 2.17 2.27 2.43 2.59 2.48 2.30 1.96 1.69 1.50 1.34 1.27 1.13 0.96 0.82 0.95 1.01 1.40 1.70 1.67 1.55 1.55 1.55 1.46 1.62 1.67 1.74 1.78 1.94 1.98 2.07
0.00 0.01 0.06 0.07 0.05 0.06 0.07 0.18 0.37 0.56 0.68 0.61 0.75 0.93 1.18 1.42 1.68 1.88 2.04 2.44 2.72 2.95 3.06 2.99 2.87 2.55 2.22 1.97 1.73 1.47 1.31 1.11 1.00 0.96 0.94 1.24 1.50 1.57 1.58 1.51 1.40 1.44 1.55 1.63 1.70 1.72 1.79 1.69 1.75
0.02 0.05 0.15 0.16 0.10 0.10 0.11 0.38 0.67 0.67 0.66 0.68 0.79 1.07 1.34 1.58 1.93 1.98 2.10 2.41 2.72 3.07 3.42 3.45 3.02 2.73 2.48 2.20 1.92 1.74 1.62 1.47 1.29 1.02 0.92 0.98 1.17 1.31 1.36 1.25 1.24 1.34 1.26 1.26 1.31 1.30 1.33 1.35 1.47
0.05 0.09 0.15 0.24 0.15 0.12 0.22 0.69 0.98 0.74 0.57 0.67 0.87 1.08 1.45 1.70 2.05 2.06 2.11 2.24 2.59 3.23 3.87 3.77 3.29 2.83 2.51 2.29 2.11 1.95 1.78 1.50 1.28 1.09 0.99 0.88 0.83 0.80 0.85 0.82 0.86 0.92 0.92 0.93 0.90 1.06 1.12 1.17 1.27
0.04 0.10 0.22 0.34 0.21 0.19 0.29 0.65 0.69 0.60 0.72 0.71 0.76 0.94 1.22 1.34 1.58 1.75 1.94 2.29 2.89 3.77 4.32 4.13 3.51 3.00 2.59 2.35 2.10 1.80 1.59 1.36 1.15 1.04 0.96 0.74 0.67 0.63 0.60 0.59 0.60 0.59 0.62 0.67 0.71 0.75 0.84 0.87 0.92
0.04 0.09 0.22 0.26 0.19 0.28 0.35 0.55 0.64 0.71 0.86 0.86 0.74 0.77 1.03 1.19 1.41 1.66 2.15 2.88 3.74 4.41 4.51 3.93 3.35 2.96 2.52 2.11 1.55 1.16 0.96 0.85 0.76 0.63 0.54 0.48 0.44 0.45 0.47 0.42 0.42 0.41 0.40 0.41 0.45 0.52 0.57 0.60 0.69
0.06 0.08 0.19 0.26 0.18 0.21 0.35 0.64 0.90 0.85 0.78 0.74 0.75 0.69 0.83 1.18 1.60 2.10 2.98 3.54 3.60 3.51 3.04 2.55 2.24 1.98 1.60 1.23 0.90 0.73 0.61 0.50 0.43 0.39 0.38 0.36 0.31 0.31 0.31 0.30 0.32 0.32 0.30 0.30 0.33 0.37 0.38 0.40 0.51
0.10 0.10 0.18 0.25 0.15 0.16 0.35 0.78 1.02 0.98 0.76 0.63 0.61 0.55 0.76 1.16 1.73 2.43 2.93 2.93 2.44 1.98 1.72 1.57 1.46 1.11 0.93 0.80 0.64 0.53 0.43 0.34 0.30 0.29 0.28 0.25 0.22 0.23 0.23 0.23 0.24 0.27 0.28 0.29 0.33 0.32 0.33 0.32 0.34
0.09 0.06 0.06 0.09 0.15 0.33 0.51 0.99 1.10 0.88 0.79 0.62 0.58 0.56 0.66 0.90 1.20 1.57 1.75 1.57 1.45 1.42 1.34 1.34 1.24 0.90 0.74 0.63 0.50 0.38 0.31 0.27 0.24 0.22 0.22 0.20 0.18 0.18 0.18 0.17 0.16 0.18 0.23 0.29 0.29 0.34 0.34 0.32 0.26
0.04 0.03 0.04 0.11 0.22 0.41 0.59 0.82 0.90 0.68 0.77 0.58 0.43 0.42 0.44 0.59 0.67 0.72 0.76 0.79 0.82 0.87 0.97 1.05 1.08 0.94 0.74 0.62 0.52 0.41 0.32 0.27 0.23 0.23 0.22 0.22 0.20 0.18 0.18 0.18 0.17 0.15 0.16 0.20 0.23 0.31 0.35 0.36 0.31
0.03 0.05 0.12 0.23 0.39 0.85 0.80 0.79 0.95 0.81 0.81 0.59 0.40 0.32 0.37 0.49 0.54 0.53 0.49 0.50 0.57 0.63 0.64 0.74 0.91 0.97 0.84 0.72 0.60 0.50 0.39 0.33 0.26 0.23 0.22 0.20 0.18 0.18 0.17 0.18 0.19 0.19 0.18 0.15 0.15 0.20 0.27 0.34 0.36
0.05 0.07 0.24 0.56 0.92 1.06 0.65 0.72 0.94 0.69 0.60 0.43 0.23 0.17 0.29 0.46 0.55 0.52 0.44 0.37 0.36 0.41 0.43 0.42 0.48 0.58 0.61 0.55 0.53 0.51 0.47 0.37 0.27 0.22 0.18 0.18 0.16 0.16 0.16 0.17 0.18 0.19 0.20 0.19 0.17 0.16 0.19 0.26 0.32
0.05 0.04 0.10 0.20 0.28 0.43 0.54 0.85 0.96 0.66 0.41 0.19 0.09 0.08 0.20 0.33 0.33 0.31 0.29 0.22 0.16 0.17 0.22 0.24 0.27 0.30 0.34 0.34 0.33 0.32 0.34 0.25 0.20 0.24 0.19 0.18 0.21 0.22 0.21 0.16 0.15 0.17 0.18 0.18 0.18 0.17 0.17 0.21 0.26
0.05 0.03 0.04 0.07 0.11 0.28 0.58 0.82 0.71 0.53 0.34 0.17 0.09 0.06 0.07 0.11 0.12 0.13 0.15 0.14 0.11 0.11 0.14 0.17 0.22 0.23 0.25 0.27 0.26 0.22 0.24 0.22 0.19 0.20 0.19 0.16 0.22 0.24 0.22 0.18 0.15 0.15 0.16 0.17 0.18 0.18 0.20 0.23 0.26
0.05 0.04 0.04 0.05 0.10 0.20 0.40 0.72 0.78 0.57 0.37 0.17 0.10 0.08 0.07 0.08 0.08 0.08 0.08 0.08 0.08 0.08 0.11 0.14 0.18 0.19 0.22 0.23 0.21 0.16 0.20 0.21 0.20 0.18 0.19 0.20 0.19 0.19 0.18 0.17 0.14 0.12 0.14 0.16 0.17 0.19 0.23 0.26 0.32
0.07 0.06 0.06 0.05 0.07 0.12 0.26 0.40 0.35 0.27 0.19 0.12 0.08 0.05 0.05 0.05 0.05 0.05 0.05 0.05 0.05 0.06 0.08 0.10 0.13 0.14 0.16 0.16 0.16 0.14 0.14 0.16 0.18 0.20 0.21 0.22 0.20 0.19 0.16 0.16 0.15 0.13 0.13 0.15 0.18 0.20 0.22 0.26 0.32
0.08 0.09 0.09 0.08 0.07 0.08 0.13 0.25 0.18 0.15 0.15 0.10 0.06 0.04 0.03 0.02 0.02 0.02 0.04 0.06 0.06 0.06 0.06 0.09 0.11 0.11 0.11 0.12 0.12 0.11 0.10 0.09 0.12 0.15 0.16 0.18 0.18 0.17 0.16 0.16 0.14 0.12 0.12 0.15 0.20 0.22 0.23 0.25 0.29